Overview Statistics Trail Chart Weather Telemetry Raw packets
 

This is the latest recevied weather packets stored in our database for station/object KI6SYE. If no packets are shown the sender has not sent any weather packets the latest 10 day(s).

<< 56 57 58 59 60 61 62 >>
Time Temp. Humidity Pressure Rain* Wind** Luminosity Snow
1788294001 22.78° C 73% 1015.2 hPa 0 mm - 732 W/m² -
1788293695 22.78° C 75% 1015.2 hPa 0 mm - 734 W/m² -
1788293390 23.33° C 73% 1015.4 hPa 0 mm - 736 W/m² -
1788293084 22.78° C 74% 1015.4 hPa 0 mm - 735 W/m² -
1788292783 22.78° C 74% 1015.4 hPa 0 mm - 736 W/m² -
1788292482 23.33° C 72% 1015.7 hPa 0 mm - 739 W/m² -
1788292177 22.78° C 74% 1015.7 hPa 0 mm - 739 W/m² -
1788291872 22.22° C 74% 1015.6 hPa 0 mm - 739 W/m² -
1788291568 22.22° C 75% 1015.7 hPa 0 mm - 737 W/m² -
1788291267 22.22° C 74% 1015.7 hPa 0 mm - 737 W/m² -
1788290967 22.22° C 75% 1015.7 hPa 0 mm - 737 W/m² -
1788290663 22.22° C 74% 1015.7 hPa 0 mm - 734 W/m² -
1788290354 22.78° C 75% 1015.9 hPa 0 mm - 731 W/m² -
1788290049 22.78° C 74% 1016 hPa 0 mm - 729 W/m² -
1788289745 22.22° C 74% 1016 hPa 0 mm - 725 W/m² -
1788289444 21.67° C 75% 1015.7 hPa 0 mm - 723 W/m² -
1788289143 22.78° C 73% 1015.7 hPa 0 mm - 719 W/m² -
1788288841 22.22° C 74% 1015.8 hPa 0 mm - 715 W/m² -
1788288537 22.22° C 73% 1015.7 hPa 0 mm - 709 W/m² -
1788288232 22.22° C 75% 1015.8 hPa 0 mm - 706 W/m² -
1788287928 21.67° C 76% 1015.7 hPa 0 mm - 701 W/m² -
1788287627 21.67° C 75% 1015.9 hPa 0 mm - 694 W/m² -
1788287323 21.67° C 75% 1015.8 hPa 0 mm - 687 W/m² -
1788287023 21.67° C 75% 1015.8 hPa 0 mm - 680 W/m² -
1788286718 21.67° C 75% 1015.8 hPa 0 mm - 674 W/m² -

* Rain latest hour (hover to see other rain measurements)
** Current wind speed in m/s (hover to see current wind gust speed)